[[{"header":{"parameterUnit":"m.s-1","parameterCategory":1,"la1":30.2991,"la2":30.254,"lo1":-89.0895,"lo2":-89.0444,"dy":0.0017,"dx":0.0017,"nx":28,"ny":28,"refTime":"2025-09-07T03:00:00:Z","depth":0,"parameterNumber":2,"parameterNumberName":"U-component_of_WINDS"},"data":[0,0,0,0,0,0,0,0,0,0,0,0,0,0,0,0,0,0,0,0,0,0,0,0,0,0,0,0,0,0,0,0,0,0,0,0,0,0,0,0,0,0,0,0,0,0,0,0,0,0,0,0,0,0,0,0,0,0,-1.2957,-1.2957,0,-1.293,-1.293,-1.293,-1.286,-1.2859,-1.2857,-1.2856,-1.283,-1.2831,-1.2831,0,0,0,0,0,0,0,0,0,0,0,0,0,-1.2948,-1.2948,-1.2957,-1.2956,-1.2956,-1.293,-1.293,-1.2929,-1.286,-1.2859,-1.2857,-1.2855,-1.283,-1.283,-1.2831,0,0,0,0,0,0,0,0,0,0,0,0,0,-1.2939,-1.2948,-1.2957,-1.2919,-1.2915,-1.293,-1.293,-1.2929,-1.2861,-1.2859,-1.2856,-1.2854,-1.2829,-1.283,-1.2831,-1.2882,0,0,-1.2835,-1.2835,0,0,0,0,0,0,0,0,-1.294,-1.294,-1.2925,-1.2921,-1.2917,-1.2896,-1.2917,-1.2914,-1.2861,-1.2881,-1.2856,-1.2853,-1.2854,-1.2853,-1.2853,-1.2881,-1.288,-1.2835,-1.2835,-1.2836,-1.2836,0,0,0,0,0,0,0,-1.2941,-1.2941,-1.2946,-1.2924,-1.292,-1.2903,-1.2899,-1.2916,-1.288,-1.288,-1.2874,-1.2872,-1.2851,-1.2852,-1.2852,-1.2879,-1.2835,-1.2836,-1.2836,-1.2837,-1.2945,-1.2947,0,0,0,0,0,0,-1.2947,-1.2941,-1.2947,-1.2945,-1.2923,-1.2905,-1.29,-1.2905,-1.288,-1.2874,-1.2874,-1.2869,-1.2851,-1.285,-1.285,-1.2906,-1.2836,-1.2837,-1.2837,-1.2943,-1.2946,-1.2948,0,0,0,0,0,0,-1.2947,-1.2948,-1.2948,-1.2942,-1.2941,-1.2907,-1.2913,-1.2906,-1.2906,-1.2876,-1.2869,-1.2881,-1.2849,-1.2849,-1.2874,-1.2905,-1.2837,-1.2838,-1.294,-1.2944,-1.2947,-1.302,0,0,0,0,0,0,-1.2947,-1.2948,-1.2968,-1.2943,-1.2941,-1.2973,-1.2915,-1.2907,-1.2908,-1.2901,-1.2881,-1.2875,-1.2848,-1.2873,-1.2875,-1.2905,-1.2839,-1.2938,-1.2942,-1.2946,-1.3015,-1.3026,-1.3035,0,0,0,0,0,-1.2947,-1.299,-1.2969,-1.297,-1.2965,-1.2975,-1.2974,-1.2941,-1.2911,-1.2929,-1.291,-1.2876,-1.2901,-1.2876,-1.2878,-1.2909,-1.2935,-1.2941,-1.2946,-1.3011,-1.3024,-1.3035,0,0,0,0,0,0,-1.302,-1.2986,-1.2962,-1.2999,-1.299,-1.2963,-1.2986,-1.2956,-1.2956,-1.295,-1.2909,-1.2905,-1.2935,-1.2924,-1.2897,-1.2955,-1.2912,-1.2918,-1.2961,-1.2973,-1.2983,-1.2985,-1.284,0,0,0,0,0,-1.3041,-1.3051,-1.3021,-1.3057,-1.3053,-1.3021,-1.3024,-1.2999,-1.2988,-1.2984,-1.2966,-1.2957,-1.2963,-1.2967,-1.2971,-1.3013,-1.3006,-1.3035,-1.3045,-1.3053,-1.3058,-1.3077,-1.3089,-1.2965,-1.2965,-1.2965,0,0,-1.3083,-1.3066,-1.3076,-1.3071,-1.3061,-1.3073,-1.3018,-1.3033,-1.3041,-1.2987,-1.3009,-1.2995,-1.2982,-1.3016,-1.3029,-1.3007,-1.3091,-1.3059,-1.3066,-1.3067,-1.3084,-1.3096,-1.3106,-1.2969,-1.2968,-1.2967,0,0,-1.3166,-1.3155,-1.3182,-1.3173,-1.3158,-1.3135,-1.3142,-1.3119,-1.3107,-1.3129,-1.3087,-1.3096,-1.3107,-1.3099,-1.3096,-1.3174,-1.3142,-1.3176,-1.3228,-1.3248,-1.3257,-1.3266,-1.3292,-1.3302,-1.3182,-1.3182,-1.3182,0,-1.3221,-1.3237,-1.32,-1.3217,-1.3216,-1.3165,-1.3192,-1.3185,-1.3173,-1.3173,-1.3148,-1.3159,-1.3147,-1.3176,-1.3195,-1.3195,-1.32,-1.3178,-1.3259,-1.3267,-1.3274,-1.3299,-1.3309,-1.3186,-1.3185,-1.3185,-1.3185,0,-1.3304,-1.3316,-1.334,-1.3327,-1.3329,-1.3351,-1.3316,-1.3322,-1.3296,-1.3276,-1.3298,-1.3281,-1.3279,-1.3285,-1.3261,-1.331,-1.3297,-1.3266,-1.3223,-1.3291,-1.3313,-1.3322,-1.3192,-1.319,-1.3189,-1.3188,0,0,-1.3435,-1.34,-1.3409,-1.3402,-1.3381,-1.3389,-1.3408,-1.3405,-1.341,-1.3403,-1.3417,-1.3426,-1.3397,-1.3394,-1.3368,-1.3385,-1.3445,-1.3352,-1.3351,-1.3369,-1.3497,-1.352,-1.3531,-1.3424,-1.3426,-1.3427,-1.3498,0,-1.3512,-1.3542,-1.3508,-1.3545,-1.3555,-1.3506,-1.3522,-1.3511,-1.3492,-1.3497,-1.3476,-1.3483,-1.3444,-1.3442,-1.3456,-1.3435,-1.3471,-1.343,-1.3436,-1.3437,-1.344,-1.3543,-1.3567,-1.3635,-1.3506,-1.3508,-1.3509,0,-1.3607,-1.3602,-1.364,-1.3614,-1.3617,-1.3632,-1.3626,-1.3631,-1.3617,-1.3602,-1.3597,-1.3565,-1.3581,-1.3539,-1.356,-1.3532,-1.3533,-1.3523,-1.3524,-1.3523,-1.3477,-1.3544,-1.3656,-1.3666,-1.3523,-1.3522,-1.3521,0,-1.3696,-1.37,-1.3722,-1.3718,-1.3689,-1.37,-1.3689,-1.3672,-1.3672,-1.3666,-1.3665,-1.3662,-1.366,-1.3658,-1.3626,-1.3598,-1.365,-1.3606,-1.3637,-1.3638,-1.365,-1.365,-1.3763,-1.3652,-1.3652,-1.3652,-1.3652,0,-1.3786,-1.381,-1.3761,-1.3775,-1.3801,-1.3761,-1.3788,-1.3771,-1.3756,-1.3765,-1.3723,-1.3733,-1.369,-1.3694,-1.3669,-1.3689,-1.3689,-1.3677,-1.367,-1.368,-1.3681,-1.3679,-1.3673,-1.3655,-1.3654,-1.3653,-1.3653,0,-1.389,-1.3858,-1.3879,-1.3849,-1.3842,-1.3862,-1.3836,-1.3848,-1.3825,-1.3837,-1.3838,-1.3803,-1.3806,-1.3773,-1.3771,-1.3754,-1.3785,-1.377,-1.3789,-1.3784,-1.3817,-1.3814,-1.3932,-1.3945,-1.3828,-1.3829,-1.383,0,-1.3949,-1.3966,-1.3938,-1.394,-1.393,-1.3936,-1.3935,-1.3896,-1.3897,-1.388,-1.3893,-1.3892,-1.3889,-1.3896,-1.3871,-1.3868,-1.3852,-1.3893,-1.3851,-1.386,-1.385,-1.3849,-1.385,-1.3902,-1.3904,-1.3905,-1.3906,0,-1.4056,-1.4039,-1.4039,-1.4033,-1.4033,-1.4026,-1.4017,-1.4022,-1.3979,-1.3982,-1.3984,-1.3982,-1.3978,-1.3977,-1.3969,-1.3956,-1.3924,-1.3919,-1.3926,-1.3936,-1.3946,-1.394,-1.3812,-1.3917,-1.3915,-1.3915,-1.3914,-1.3914,-1.4138,-1.4151,-1.4132,-1.4132,-1.4121,-1.4113,-1.4121,-1.4099,-1.41,-1.4093,-1.407,-1.4076,-1.4059,-1.4044,-1.4034,-1.4037,-1.4017,-1.4028,-1.403,-1.4033,-1.4038,-1.3946,-1.4036,-1.4036,-1.4035,-1.4035,-1.4035,0,-1.4242,-1.4227,-1.4228,-1.4215,-1.4216,-1.4184,-1.4172,-1.4174,-1.4179,-1.4166,-1.4164,-1.4165,-1.4163,-1.4137,-1.4132,-1.414,-1.4124,-1.414,-1.4138,-1.4135,-1.4058,-1.4051,-1.4152,-1.4152,-1.4152,-1.4152,-1.4152,-1.4152,-1.4296,-1.4314,-1.4295,-1.4307,-1.4291,-1.4296,-1.4291,-1.4283,-1.4272,-1.4275,-1.4273,-1.4255,-1.4236,-1.4229,-1.4226,-1.4218,-1.4218,-1.4238,-1.4225,-1.4153,-1.4141,-1.413,-1.4124,-1.4238,-1.4239,-1.4302,-1.4303,-1.4303]},{"header":{"parameterUnit":"m.s-1","parameterCategory":1,"la1":30.2991,"la2":30.254,"lo1":-89.0895,"lo2":-89.0444,"dy":0.0017,"dx":0.0017,"nx":28,"ny":28,"refTime":"2025-09-07T03:00:00:Z","depth":0,"parameterNumber":3,"parameterNumberName":"V-component_of_WINDS"},"data":[0,0,0,0,0,0,0,0,0,0,0,0,0,0,0,0,0,0,0,0,0,0,0,0,0,0,0,0,0,0,0,0,0,0,0,0,0,0,0,0,0,0,0,0,0,0,0,0,0,0,0,0,0,0,0,0,0,0,-4.8318,-4.8318,0,-4.835,-4.835,-4.835,-4.8282,-4.8279,-4.8277,-4.8275,-4.8304,-4.8306,-4.8309,0,0,0,0,0,0,0,0,0,0,0,0,0,-4.8192,-4.8195,-4.8318,-4.8318,-4.8318,-4.835,-4.835,-4.835,-4.8282,-4.8279,-4.8277,-4.8274,-4.8303,-4.8306,-4.8309,0,0,0,0,0,0,0,0,0,0,0,0,0,-4.8238,-4.8196,-4.8318,-4.8288,-4.8286,-4.835,-4.835,-4.8351,-4.8283,-4.8279,-4.8276,-4.8273,-4.8302,-4.8306,-4.831,-4.8402,0,0,-4.8323,-4.8325,0,0,0,0,0,0,0,0,-4.8235,-4.8242,-4.8292,-4.829,-4.8288,-4.8308,-4.8316,-4.8368,-4.8283,-4.8284,-4.8275,-4.8271,-4.8308,-4.8311,-4.8324,-4.8403,-4.8405,-4.8323,-4.8326,-4.8327,-4.8329,0,0,0,0,0,0,0,-4.8232,-4.8241,-4.833,-4.8293,-4.829,-4.8272,-4.8275,-4.8326,-4.8314,-4.8283,-4.8279,-4.8284,-4.8306,-4.832,-4.8324,-4.8405,-4.8323,-4.8327,-4.8329,-4.8331,-4.856,-4.8564,0,0,0,0,0,0,-4.8233,-4.8238,-4.8329,-4.8331,-4.8253,-4.8277,-4.828,-4.8305,-4.8313,-4.8311,-4.8286,-4.828,-4.8315,-4.832,-4.8325,-4.8432,-4.8327,-4.8331,-4.8334,-4.8557,-4.8561,-4.8565,0,0,0,0,0,0,-4.8231,-4.8242,-4.8328,-4.8284,-4.8293,-4.8283,-4.8311,-4.8307,-4.8322,-4.8315,-4.8312,-4.8304,-4.8312,-4.8319,-4.8383,-4.8432,-4.8333,-4.8337,-4.8552,-4.8558,-4.8563,-4.8649,0,0,0,0,0,0,-4.8228,-4.8242,-4.8278,-4.8285,-4.8296,-4.8387,-4.8314,-4.831,-4.833,-4.8322,-4.8331,-4.8329,-4.831,-4.8378,-4.8388,-4.8436,-4.834,-4.8548,-4.8555,-4.8561,-4.8642,-4.8656,-4.8669,0,0,0,0,0,-4.8224,-4.83,-4.828,-4.8291,-4.8341,-4.839,-4.8396,-4.8374,-4.8334,-4.8369,-4.8365,-4.8329,-4.8426,-4.8385,-4.8396,-4.8446,-4.8545,-4.8553,-4.8561,-4.8635,-4.8654,-4.8669,0,0,0,0,0,0,-4.8297,-4.83,-4.8278,-4.836,-4.8376,-4.8379,-4.8422,-4.8395,-4.8421,-4.8412,-4.8383,-4.8385,-4.8455,-4.8457,-4.8411,-4.8535,-4.8478,-4.8489,-4.8531,-4.8549,-4.8562,-4.8559,-4.8344,0,0,0,0,0,-4.8323,-4.8365,-4.8365,-4.8436,-4.8446,-4.8433,-4.8454,-4.8436,-4.845,-4.8456,-4.8456,-4.8471,-4.8504,-4.8527,-4.8557,-4.8642,-4.8642,-4.8682,-4.8696,-4.8708,-4.8716,-4.876,-4.8778,-4.8591,-4.8591,-4.8591,0,0,-4.8377,-4.8384,-4.8411,-4.8451,-4.8461,-4.8503,-4.8439,-4.8486,-4.8516,-4.8463,-4.8523,-4.8524,-4.8538,-4.8613,-4.8646,-4.8617,-4.8768,-4.8718,-4.8727,-4.873,-4.877,-4.8788,-4.8803,-4.8597,-4.8596,-4.8595,0,0,-4.8495,-4.8506,-4.8566,-4.8578,-4.8595,-4.8586,-4.86,-4.8608,-4.8607,-4.8668,-4.8628,-4.8663,-4.8722,-4.8733,-4.8747,-4.8871,-4.8837,-4.8881,-4.8953,-4.8996,-4.901,-4.9023,-4.9066,-4.9081,-4.8891,-4.8891,-4.8891,0,-4.8559,-4.8622,-4.86,-4.865,-4.8668,-4.8624,-4.8683,-4.8695,-4.8721,-4.8733,-4.8701,-4.8774,-4.878,-4.8856,-4.8887,-4.89,-4.8914,-4.8879,-4.901,-4.9023,-4.9035,-4.9075,-4.9091,-4.8896,-4.8895,-4.8895,-4.8894,0,-4.8699,-4.8743,-4.879,-4.8817,-4.884,-4.8895,-4.888,-4.8906,-4.8886,-4.8881,-4.8942,-4.8949,-4.8979,-4.8997,-4.8977,-4.907,-4.9051,-4.9016,-4.8957,-4.9058,-4.9095,-4.911,-4.8903,-4.8901,-4.89,-4.8899,0,0,-4.8863,-4.8878,-4.8895,-4.8907,-4.8922,-4.8955,-4.9008,-4.9039,-4.9061,-4.9081,-4.9122,-4.9174,-4.9141,-4.9156,-4.9138,-4.9176,-4.9272,-4.9135,-4.9135,-4.9159,-4.9372,-4.9397,-4.9416,-4.9251,-4.9254,-4.9256,-4.937,0,-4.8979,-4.907,-4.9052,-4.9141,-4.9181,-4.9139,-4.9184,-4.9198,-4.9194,-4.9226,-4.9221,-4.9258,-4.9212,-4.9221,-4.9257,-4.9252,-4.9314,-4.9244,-4.9287,-4.9289,-4.9283,-4.9435,-4.9462,-4.957,-4.9385,-4.9387,-4.9389,0,-4.9126,-4.9152,-4.9246,-4.9255,-4.927,-4.9312,-4.9339,-4.9371,-4.9385,-4.9379,-4.9397,-4.9372,-4.9422,-4.9365,-4.9432,-4.9386,-4.9402,-4.9403,-4.9406,-4.9408,-4.9344,-4.9439,-4.9604,-4.962,-4.9412,-4.941,-4.9408,0,-4.9234,-4.9293,-4.9356,-4.9367,-4.938,-4.9409,-4.9416,-4.9427,-4.9447,-4.947,-4.9483,-4.9511,-4.9527,-4.9549,-4.9531,-4.9491,-4.9601,-4.9543,-4.9596,-4.9597,-4.9619,-4.9618,-4.9787,-4.9634,-4.9634,-4.9633,-4.9633,0,-4.9364,-4.9422,-4.9405,-4.9443,-4.9507,-4.9485,-4.9548,-4.9549,-4.9559,-4.9596,-4.9562,-4.9597,-4.9573,-4.9605,-4.9592,-4.9649,-4.9657,-4.9652,-4.9647,-4.9654,-4.9655,-4.9663,-4.9654,-4.9638,-4.9637,-4.9636,-4.9635,0,-4.9495,-4.9486,-4.9551,-4.9558,-4.9561,-4.9608,-4.9613,-4.9648,-4.9642,-4.9689,-4.9699,-4.9689,-4.9726,-4.9711,-4.975,-4.974,-4.9813,-4.98,-4.9809,-4.9805,-4.9858,-4.9852,-5.0037,-5.006,-4.9894,-4.9896,-4.9897,0,-4.9577,-4.9621,-4.9634,-4.9657,-4.9666,-4.9703,-4.9724,-4.9704,-4.9727,-4.9747,-4.9779,-4.9813,-4.9839,-4.9899,-4.9895,-4.9924,-4.9909,-4.9972,-4.9913,-4.9918,-4.9908,-4.9904,-4.9908,-4.9983,-4.9985,-4.9987,-4.9988,0,-4.9724,-4.9718,-4.975,-4.978,-4.9806,-4.9829,-4.9848,-4.9869,-4.985,-4.9877,-4.9915,-4.9935,-4.9975,-5.0009,-5.0035,-5.0039,-5.001,-5.0007,-5.002,-5.0026,-5.0029,-5.0026,-4.9839,-5.0002,-5.0001,-5.0,-4.9999,-4.9998,-4.9832,-4.9869,-4.9883,-4.9919,-4.9933,-4.9952,-4.9985,-4.9984,-5.0016,-5.0047,-5.0034,-5.0077,-5.009,-5.0122,-5.0131,-5.0163,-5.0138,-5.0158,-5.0163,-5.0167,-5.0174,-5.0026,-5.0168,-5.0167,-5.0167,-5.0167,-5.0166,0,-4.9975,-4.9983,-5.0017,-5.0046,-5.0074,-5.0047,-5.0067,-5.0092,-5.0131,-5.0146,-5.0173,-5.0216,-5.0248,-5.0247,-5.0277,-5.0303,-5.029,-5.0311,-5.0308,-5.0309,-5.0195,-5.018,-5.0321,-5.0321,-5.0321,-5.0321,-5.0321,-5.0321,-5.0053,-5.0113,-5.0109,-5.0175,-5.0181,-5.0225,-5.0238,-5.0255,-5.0267,-5.0317,-5.0344,-5.0344,-5.0352,-5.0382,-5.0411,-5.0409,-5.0421,-5.0446,-5.044,-5.0333,-5.0317,-5.0303,-5.0288,-5.045,-5.045,-5.0551,-5.0552,-5.0552]}]]